User: anonymous   Login
Location: Chèvreville
(49.1099°N, 2.8495°E)
Time: 23:54:09
(UTC+00:00)
Language:

Okean O Rocket - Orbit

View from above orbital plane
View from above orbital plane
View from above satellite
View from above satellite

Ground track
Ground track

The orbit data is extracted from the following two-line orbital elements,

1 25861U 99039B   24176.59858361  .00000765  00000-0  10781-3 0  9995
2 25861  98.0879 222.6207 0016495 113.5025 246.7921 14.80133267344634
Epoch (UTC): 24 June 2024 14:21:57
Eccentricity: 0.0016495
inclination: 98.0879°
perigee height: 617 km
apogee height: 640 km
right ascension of ascending node: 222.6207°
argument of perigee: 113.5025°
revolutions per day: 14.80133267
mean anomaly at epoch: 246.7921°
orbit number at epoch: 34463

The dashed part of the orbit path shows where the satellite is in the earth's shadow,  

DLR